TimeMDT,TemperatureF,Dew PointF,Humidity,Sea Level PressureIn,VisibilityMPH,Wind Direction,Wind SpeedMPH,Gust SpeedMPH,PrecipitationIn,Events,Conditions,WindDirDegrees,DateUTC
12:53 AM,66.0,48.0,52,29.74,10.0,SSE,10.4,-,N/A,,Clear,160,2013-06-14 06:53:00
1:53 AM,69.1,48.9,49,29.71,10.0,SSE,20.7,29.9,N/A,,Clear,160,2013-06-14 07:53:00
2:53 AM,66.9,52.0,59,29.70,10.0,South,17.3,27.6,N/A,,Clear,170,2013-06-14 08:53:00
3:53 AM,64.0,53.1,67,29.69,10.0,South,13.8,-,N/A,,Clear,170,2013-06-14 09:53:00
4:53 AM,66.9,55.0,66,29.69,10.0,South,18.4,-,N/A,,Clear,170,2013-06-14 10:53:00
5:53 AM,64.0,55.9,75,29.75,10.0,WNW,9.2,-,N/A,,Clear,290,2013-06-14 11:53:00
6:53 AM,64.0,57.9,80,29.75,10.0,SSW,4.6,-,N/A,,Clear,200,2013-06-14 12:53:00
7:53 AM,69.1,55.9,63,29.77,10.0,WSW,10.4,18.4,N/A,,Clear,240,2013-06-14 13:53:00
8:53 AM,70.0,54.0,57,29.81,10.0,NNW,17.3,23.0,N/A,,Clear,330,2013-06-14 14:53:00
9:53 AM,72.0,54.0,53,29.83,10.0,NW,17.3,26.5,N/A,,Clear,320,2013-06-14 15:53:00
10:53 AM,75.0,53.1,46,29.81,10.0,NNW,19.6,27.6,N/A,,Clear,340,2013-06-14 16:53:00
11:53 AM,81.0,51.1,35,29.80,10.0,NNW,16.1,24.2,N/A,,Clear,340,2013-06-14 17:53:00
12:53 PM,84.0,50.0,31,29.81,10.0,North,16.1,23.0,N/A,,Clear,360,2013-06-14 18:53:00
1:53 PM,86.0,48.0,27,29.79,10.0,NNW,13.8,21.9,N/A,,Clear,330,2013-06-14 19:53:00
2:53 PM,88.0,46.0,23,29.78,10.0,North,12.7,19.6,N/A,,Clear,360,2013-06-14 20:53:00
3:53 PM,87.1,45.0,23,29.78,10.0,NNE,10.4,16.1,N/A,,Clear,20,2013-06-14 21:53:00
4:53 PM,87.1,44.1,22,29.75,10.0,Variable,5.8,-,N/A,,Clear,0,2013-06-14 22:53:00
5:53 PM,84.9,45.0,25,29.75,10.0,ENE,11.5,-,N/A,,Clear,70,2013-06-14 23:53:00
6:53 PM,81.0,54.0,39,29.77,10.0,East,10.4,-,N/A,,Clear,100,2013-06-15 00:53:00
7:53 PM,78.1,55.0,45,29.81,10.0,ESE,8.1,-,N/A,,Clear,120,2013-06-15 01:53:00
8:53 PM,73.0,54.0,51,29.82,10.0,SE,9.2,-,N/A,,Clear,140,2013-06-15 02:53:00
9:53 PM,66.9,52.0,59,29.84,10.0,ESE,9.2,-,N/A,,Clear,120,2013-06-15 03:53:00
10:53 PM,62.1,54.0,75,29.86,10.0,SSW,6.9,-,N/A,,Clear,200,2013-06-15 04:53:00
11:53 PM,66.0,55.0,68,29.87,10.0,Calm,Calm,-,N/A,,Scattered Clouds,0,2013-06-15 05:53:00